Location: Sternwarte_Laufen
(47.9344°N, 12.9346°E)
Time: 05:22:00
(UTC+02:00)

ISS - Pass Details

Date: 18 May 2018
Orbit: 402 x 407 km, 51.6° (Epoch: 25 May)

Event Time Altitude Azimuth Distance (km) Brightness Sun altitude
Exits shadow 01:48:24 46° 328° (NNW) 552 -2.9 -21.9°
Maximum altitude 01:48:43 48° 349° (N) 535 -2.9 -21.9°
Drops below altitude 10° 01:51:54 10° 65° (ENE) 1,459 -0.6 -21.7°
Sets 01:54:01 0° 72° (ENE) 2,319 0.4 -21.7°
